Location: Most
(50.5133°N, 13.6207°E)
Time: 11:22:57
(UTC+01:00)

ISS - Pass Details

Date: 30 March 2017
Orbit: 399 x 409 km, 51.6° (Epoch: 23 March)

Event Time Altitude Azimuth Distance (km) Brightness Sun altitude
Rises 22:24:42 0° 264° (W) 2,315 0.6 -24.9°
Reaches altitude 10° 22:26:47 10° 266° (W) 1,458 -0.5 -25.2°
Enters shadow 22:27:55 20° 269° (W) 1,005 -1.4 -25.3°
